Wind_Speed
33 34 35 38 41 42 43 44 44 45 45 44 45 46 46 46 46 46 46 46 46 44 43 44 44 43 41 41 39 37 38 38 37 35 36 36 35 34 34 33 33 33 33
31 33 35 37 41 43 43 43 44 45 45 45 45 45 47 46 46 46 46 46 46 45 44 44 45 43 42 42 40 39 38 37 37 37 37 36 37 36 35 35 35 34 34
29 31 33 35 38 40 42 42 44 44 45 45 44 45 46 47 46 48 47 46 45 45 44 44 44 43 42 41 41 40 38 37 38 38 38 38 38 38 37 36 36 35 35
30 32 33 33 35 38 40 42 43 43 43 44 43 44 45 46 46 47 48 47 46 45 44 44 44 43 43 42 42 41 40 39 39 39 39 39 39 39 38 37 37 37 36
30 32 33 33 34 36 38 40 41 42 43 44 45 45 45 45 46 46 48 47 47 46 46 45 44 44 44 43 43 42 42 41 40 39 40 40 40 39 38 37 37 37 37
29 31 32 33 35 36 37 38 40 41 41 43 43 44 44 45 45 45 46 46 47 47 47 47 46 46 45 44 44 44 43 41 40 40 40 40 40 39 38 37 37 36 37
29 30 32 34 34 35 36 37 39 40 40 41 42 42 42 43 46 46 46 46 46 46 46 45 46 46 46 45 45 45 44 43 42 41 41 41 39 39 39 39 38 37 37
29 31 32 33 34 35 36 37 37 38 38 39 41 41 41 41 42 44 46 47 47 46 46 45 46 46 46 46 46 46 45 44 43 42 41 41 40 40 40 39 39 38 37
29 31 32 32 34 36 36 37 38 38 38 38 40 40 41 41 41 43 43 45 46 46 45 46 45 45 45 45 46 45 45 45 44 43 42 40 40 41 40 39 39 39 38
31 31 31 32 33 35 36 37 37 37 37 38 38 40 41 41 42 42 42 42 44 46 45 46 46 45 44 44 45 45 44 45 45 44 42 41 40 39 39 39 38 37 37
31 32 32 31 32 34 36 36 37 36 37 37 37 38 40 41 41 41 43 42 42 43 44 44 44 45 44 44 45 44 44 44 45 44 42 41 40 39 38 37 37 37 36
30 31 31 31 32 33 34 35 35 35 36 36 36 37 38 39 39 39 41 40 40 41 43 45 44 44 45 44 44 43 44 44 43 42 40 40 40 39 38 37 37 36 36
28 29 29 29 30 31 32 33 33 34 36 36 35 35 36 36 36 38 39 40 40 41 42 43 43 43 44 43 42 43 43 43 42 41 40 39 39 39 38 37 36 35 36
29 29 29 28 28 29 30 31 32 33 34 34 34 34 35 35 35 36 38 39 39 40 41 42 42 41 41 41 40 40 41 42 41 40 39 39 38 38 37 35 35 35 36
29 28 28 28 29 29 29 30 31 31 32 32 33 33 34 34 34 35 36 37 38 38 38 39 39 39 39 40 40 38 39 40 40 39 39 38 38 38 37 36 35 35 36
28 28 28 28 27 27 28 29 30 30 30 30 31 32 33 33 34 35 36 36 37 37 36 36 38 38 38 38 38 36 37 38 39 38 38 39 38 39 39 38 36 36 36
26 27 27 27 26 27 28 29 29 30 30 30 31 32 32 33 33 34 34 35 35 35 35 35 35 36 36 36 35 35 35 36 36 37 38 39 38 38 38 38 37 38 37
25 25 25 25 24 26 27 27 28 28 28 29 30 31 31 32 33 33 33 33 33 33 33 33 33 34 34 35 35 34 34 35 35 36 38 38 37 36 37 38 37 37 37
24 24 24 23 23 24 26 27 28 28 28 28 30 30 30 30 31 31 32 31 32 33 32 32 32 32 33 33 34 34 33 34 35 35 35 36 36 35 37 37 36 36 36
24 23 23 22 22 23 24 25 27 28 28 29 29 29 29 29 29 30 30 30 30 30 29 30 31 31 32 32 32 33 33 34 34 34 33 35 35 34 34 35 35 35 34
23 22 21 22 22 22 23 23 24 25 26 27 28 28 28 28 28 28 28 28 28 29 29 29 29 30 31 31 31 32 33 33 33 33 34 35 35 34 33 33 34 33 34
23 22 22 22 22 22 22 22 23 24 25 26 27 27 27 27 27 27 27 27 27 28 28 28 28 28 29 29 30 31 31 31 32 32 32 32 34 34 33 32 32 33 33
22 22 22 22 22 22 22 22 22 23 23 24 25 26 27 26 26 26 26 27 27 27 27 28 29 29 29 28 28 29 29 29 30 31 30 31 33 34 32 31 31 31 32
21 21 22 21 21 21 21 21 21 21 21 21 22 23 23 24 25 26 26 26 26 27 27 27 28 28 27 27 27 27 27 26 27 28 30 31 31 32 33 32 30 29 29
20 20 20 19 19 20 20 20 20 19 19 19 20 21 22 23 23 24 24 24 25 25 25 26 26 26 27 27 27 26 26 26 27 27 28 29 29 30 31 31 30 29 29
18 17 17 17 17 17 18 18 18 18 18 18 18 20 20 21 22 22 22 23 23 23 24 24 24 25 25 26 26 25 24 25 25 26 27 27 27 28 29 29 28 28 28
Wind_Direction
248 249 250 249 247 247 247 246 245 245 245 247 248 248 247 247 247 247 247 248 250 251 252 252 250 249 251 252 255 257 259 260 261 262 262 263 264 265 267 268 269 270 271
249 251 251 251 249 248 249 247 246 246 246 248 249 249 248 247 247 246 247 248 249 249 251 252 250 249 250 252 254 256 259 259 260 261 262 263 263 264 265 268 267 269 272
253 252 253 252 252 249 249 247 245 247 247 247 249 249 249 247 247 246 247 248 249 250 251 250 248 247 249 252 255 256 259 260 260 261 262 264 264 264 265 267 267 267 270
256 254 254 255 255 253 249 247 245 248 247 246 247 250 250 248 247 247 248 250 251 250 249 249 249 249 250 253 255 258 259 260 260 261 262 264 266 265 265 266 268 269 269
257 254 254 256 257 254 250 249 247 247 247 247 247 250 250 248 247 247 248 250 251 250 249 249 249 251 252 254 256 257 259 259 259 261 262 263 264 263 265 266 268 269 269
261 259 258 258 257 254 250 251 248 248 249 249 249 252 251 249 248 249 249 250 251 250 249 249 250 251 253 256 257 257 258 258 259 260 261 263 262 263 264 266 267 268 270
265 264 262 262 260 255 254 251 248 248 250 252 251 252 252 251 250 250 248 250 251 250 249 250 251 253 256 257 258 257 257 258 259 260 262 263 263 263 264 265 266 267 269
270 268 266 263 260 257 257 253 251 249 250 252 252 253 252 252 251 251 249 249 249 249 250 251 253 254 256 257 257 256 256 257 257 258 261 263 262 263 263 265 265 266 267
273 270 268 265 260 258 258 255 253 252 253 254 254 253 254 252 251 250 249 248 248 249 250 251 252 253 254 255 255 255 255 255 256 257 260 261 263 262 262 263 264 266 268
276 275 271 266 261 258 257 256 254 255 255 256 256 254 255 255 253 250 250 252 252 250 250 252 253 253 253 253 255 254 253 254 255 256 257 258 260 260 260 262 263 264 267
278 277 275 270 265 261 258 255 254 255 256 257 257 257 258 258 255 253 251 252 252 252 251 251 252 253 253 254 255 254 253 253 254 255 256 257 258 259 260 261 262 263 268
277 275 275 271 267 264 260 257 254 254 255 257 258 258 258 258 256 255 253 253 254 253 253 253 254 253 254 255 254 254 253 252 253 253 254 256 256 256 258 260 262 264 267
279 277 277 274 268 265 260 257 255 255 256 258 259 260 259 258 257 256 255 255 254 253 254 254 254 253 254 253 255 254 252 250 251 252 253 254 254 255 255 257 260 264 268
279 278 276 275 268 264 262 260 258 258 258 259 260 261 260 259 258 258 256 255 255 254 256 255 254 252 253 253 253 253 251 248 248 250 251 253 254 254 253 254 259 264 268
280 279 278 276 269 266 263 261 261 261 262 263 262 261 261 260 260 259 259 257 254 252 254 254 252 250 251 252 254 253 251 248 248 248 250 251 253 253 252 255 260 264 269
281 280 279 276 271 267 264 261 262 262 263 264 263 261 262 261 261 260 260 258 255 253 253 253 251 250 251 253 254 251 252 249 247 248 249 251 254 254 254 256 260 266 270
283 283 280 277 271 266 263 262 262 262 263 264 263 262 262 261 261 260 259 257 255 253 252 252 251 250 251 254 253 252 251 248 247 248 250 251 253 255 254 257 260 265 270
286 285 282 277 270 267 264 264 265 265 265 264 262 261 263 262 261 260 259 256 254 253 254 252 251 251 253 254 254 254 251 247 248 248 250 250 252 254 255 256 261 265 269
287 286 284 278 274 271 268 266 268 268 268 267 264 262 263 263 261 260 258 255 254 254 254 250 251 251 254 256 255 255 251 249 250 249 248 248 251 254 257 259 262 265 268
289 287 283 278 275 273 273 272 270 269 269 268 266 262 261 262 261 258 256 256 256 256 254 250 252 254 254 255 254 255 252 252 251 250 250 250 251 254 257 261 262 264 265
287 286 282 277 275 274 274 274 272 271 270 268 266 263 261 260 259 258 257 256 256 256 253 252 254 255 253 254 253 253 252 252 251 251 251 252 253 254 256 259 261 262 262
286 284 282 279 275 275 276 275 275 274 271 268 266 264 263 263 262 260 259 258 257 256 254 254 254 252 252 253 251 251 252 253 252 251 252 252 253 254 255 257 259 260 261
287 285 283 280 277 275 276 277 277 276 274 270 269 265 264 264 262 260 259 258 257 256 256 256 256 255 254 251 250 252 252 252 253 252 253 254 254 255 255 254 257 260 262
288 287 285 282 278 275 275 278 277 277 277 275 270 264 262 262 260 259 257 257 258 258 258 257 256 253 251 250 250 250 251 251 254 255 255 255 254 253 255 255 258 261 261
288 289 287 283 280 279 278 278 279 279 280 276 271 267 265 261 260 261 259 257 258 258 256 254 253 252 251 250 249 249 251 252 253 255 257 257 256 255 255 256 259 259 258
287 289 288 284 283 283 282 283 283 282 281 279 275 270 267 263 262 262 262 260 258 256 252 251 252 253 253 250 249 249 251 252 254 256 257 256 255 255 254 256 258 257 257
Height
5661 5663 5665 5666 5669 5672 5675 5678 5682 5686 5690 5694 5697 5700 5703 5706 5709 5711 5714 5717 5720 5723 5726 5728 5731 5733 5736 5739 5741 5742 5744 5747 5749 5750 5752 5754 5755 5757 5758 5759 5760 5760 5761
5653 5654 5656 5657 5659 5662 5665 5667 5671 5676 5680 5683 5686 5689 5692 5695 5698 5701 5703 5706 5709 5712 5715 5717 5720 5723 5726 5729 5731 5733 5735 5737 5739 5742 5743 5745 5747 5748 5750 5751 5751 5752 5752
5646 5647 5648 5649 5650 5652 5655 5658 5661 5666 5669 5673 5675 5678 5680 5684 5687 5691 5693 5696 5698 5701 5704 5707 5710 5712 5715 5718 5721 5724 5726 5727 5730 5732 5734 5736 5738 5740 5742 5742 5743 5744 5744
5639 5640 5641 5642 5643 5644 5646 5648 5652 5655 5658 5662 5665 5667 5670 5674 5677 5680 5683 5685 5687 5690 5693 5696 5700 5703 5705 5709 5711 5713 5716 5718 5720 5722 5724 5727 5728 5730 5733 5734 5735 5735 5736
5632 5632 5633 5634 5634 5635 5637 5639 5642 5645 5648 5651 5654 5657 5660 5663 5667 5669 5672 5675 5677 5680 5683 5686 5689 5693 5696 5698 5700 5703 5706 5708 5710 5713 5715 5716 5718 5720 5722 5725 5727 5727 5727
5624 5624 5624 5625 5626 5627 5629 5631 5633 5636 5638 5642 5645 5647 5650 5653 5656 5659 5662 5665 5667 5670 5673 5676 5679 5682 5685 5687 5689 5692 5695 5698 5701 5703 5705 5707 5709 5711 5713 5715 5717 5718 5719
5617 5617 5617 5617 5617 5618 5620 5622 5624 5626 5629 5632 5635 5637 5640 5643 5646 5648 5651 5654 5657 5660 5662 5665 5669 5672 5674 5676 5678 5681 5684 5687 5690 5693 5695 5697 5699 5701 5703 5705 5707 5708 5709
5610 5609 5609 5608 5608 5610 5611 5613 5615 5618 5620 5623 5625 5627 5630 5632 5635 5638 5641 5644 5646 5649 5652 5655 5658 5661 5664 5666 5668 5670 5673 5677 5680 5683 5685 5687 5689 5691 5693 5695 5697 5698 5700
5602 5601 5601 5600 5600 5601 5603 5604 5607 5609 5612 5614 5616 5618 5620 5622 5624 5627 5630 5633 5635 5638 5641 5644 5647 5650 5653 5655 5657 5660 5663 5666 5669 5672 5675 5677 5679 5680 5682 5684 5686 5688 5690
5595 5593 5592 5592 5593 5594 5595 5596 5599 5601 5604 5605 5607 5608 5610 5612 5614 5616 5619 5622 5625 5628 5631 5634 5636 5639 5642 5644 5646 5649 5652 5655 5658 5661 5664 5666 5668 5670 5673 5675 5677 5678 5679
5588 5586 5585 5585 5585 5586 5587 5588 5591 5593 5595 5596 5598 5599 5601 5602 5604 5606 5609 5612 5615 5617 5620 5623 5626 5629 5631 5633 5635 5638 5641 5644 5647 5650 5653 5656 5658 5661 5663 5665 5667 5669 5670
5581 5579 5578 5577 5577 5578 5578 5580 5583 5585 5587 5588 5590 5591 5592 5593 5595 5598 5600 5602 5605 5607 5610 5613 5616 5618 5620 5623 5625 5628 5630 5633 5637 5640 5643 5645 5648 5651 5653 5655 5658 5659 5661
5574 5573 5572 5571 5570 5570 5571 5574 5576 5577 5579 5580 5581 5582 5583 5585 5586 5588 5590 5592 5595 5597 5600 5603 5606 5608 5610 5612 5615 5617 5620 5623 5626 5629 5632 5635 5638 5641 5644 5646 5648 5650 5651
5568 5567 5566 5565 5565 5565 5566 5567 5568 5569 5571 5572 5573 5573 5574 5576 5577 5578 5580 5582 5584 5587 5590 5592 5595 5597 5599 5602 5604 5607 5610 5613 5615 5619 5622 5626 5629 5632 5634 5636 5639 5640 5641
5562 5560 5559 5559 5559 5558 5559 5559 5560 5561 5562 5563 5564 5565 5566 5567 5568 5569 5570 5572 5574 5577 5579 5582 5584 5587 5589 5592 5594 5597 5600 5603 5606 5610 5613 5616 5620 5622 5625 5627 5629 5631 5632
5555 5554 5553 5552 5551 5551 5551 5552 5553 5554 5554 5555 5555 5556 5557 5558 5559 5560 5561 5563 5565 5567 5570 5572 5575 5578 5580 5583 5585 5587 5591 5593 5597 5601 5604 5607 5610 5613 5616 5618 5619 5621 5622
5549 5548 5546 5545 5545 5544 5545 5545 5546 5546 5547 5547 5547 5548 5549 5550 5551 5552 5552 5554 5556 5558 5561 5563 5566 5569 5571 5573 5575 5578 5581 5585 5588 5592 5595 5598 5600 5603 5606 5608 5610 5611 5612
5543 5541 5539 5538 5538 5538 5538 5538 5538 5538 5538 5538 5539 5540 5541 5541 5542 5543 5544 5546 5548 5550 5553 5555 5558 5560 5563 5565 5567 5570 5573 5576 5580 5583 5586 5589 5591 5594 5597 5599 5601 5602 5603
5536 5535 5533 5532 5531 5531 5531 5531 5531 5531 5530 5530 5531 5531 5532 5533 5534 5535 5536 5538 5540 5543 5545 5547 5550 5552 5555 5557 5560 5562 5565 5568 5571 5573 5577 5580 5582 5585 5588 5590 5592 5593 5594
5530 5528 5527 5526 5525 5525 5524 5524 5524 5523 5523 5523 5523 5524 5524 5525 5526 5527 5529 5531 5532 5534 5536 5539 5542 5544 5547 5549 5552 5554 5557 5560 5562 5565 5568 5571 5573 5576 5578 5580 5582 5584 5585
5524 5522 5521 5520 5519 5518 5518 5517 5517 5516 5516 5516 5516 5516 5517 5518 5519 5520 5522 5523 5525 5527 5529 5532 5534 5537 5540 5542 5544 5546 5549 5551 5554 5556 5559 5561 5564 5566 5569 5571 5573 5575 5576
5518 5517 5515 5514 5513 5512 5512 5511 5510 5510 5509 5509 5509 5510 5510 5511 5512 5513 5514 5516 5518 5520 5522 5524 5527 5529 5531 5534 5536 5538 5540 5543 5545 5548 5550 5553 5555 5557 5560 5562 5564 5566 5567
5513 5511 5510 5509 5508 5507 5506 5505 5505 5504 5503 5502 5502 5503 5503 5504 5505 5506 5508 5509 5511 5513 5515 5517 5519 5521 5523 5526 5528 5530 5533 5535 5537 5539 5542 5544 5546 5549 5551 5554 5556 5557 5559
5507 5506 5504 5503 5502 5501 5500 5500 5499 5498 5497 5497 5496 5496 5497 5498 5498 5500 5501 5503 5504 5505 5507 5509 5512 5514 5516 5518 5520 5523 5525 5527 5529 5532 5534 5536 5538 5540 5543 5545 5547 5549 5551
5502 5500 5499 5497 5496 5496 5495 5494 5493 5492 5492 5491 5491 5491 5491 5492 5492 5493 5494 5496 5497 5498 5500 5502 5504 5506 5509 5511 5513 5515 5518 5520 5522 5524 5526 5528 5530 5532 5534 5537 5539 5541 5543
5497 5495 5494 5493 5492 5490 5489 5489 5488 5487 5486 5486 5485 5485 5486 5486 5487 5487 5488 5489 5490 5491 5493 5495 5497 5499 5501 5503 5506 5508 5510 5512 5514 5516 5518 5520 5521 5524 5526 5529 5531 5533 5535